[[{"header":{"parameterUnit":"m.s-1","parameterCategory":2,"la1":30.2991,"la2":30.254,"lo1":-89.0895,"lo2":-89.0444,"dy":0.0017,"dx":0.0017,"nx":28,"ny":28,"refTime":"2025-01-19T03:00:00:Z","depth":"0","parameterNumber":2,"parameterNumberName":"U-component_of_CURRENTS"},"data":[0,0,0,0,0,0,0,0,0,0,0,0,0,0,0,0,0,0,0,0,0,0,0,0,0,0,0,0,0,0,0,0,0,0,0,0,0,0,0,0,0,0,0,0,0,0,0,0,0,0,0,0,0,0,0,0,0,0,0.2078,0.2078,0,0.2071,0.2071,0.207,0.205,0.205,0.205,0.2049,0.2043,0.2043,0.2043,0,0,0,0,0,0,0,0,0,0,0,0,0,0.2096,0.2096,0.2078,0.2078,0.2078,0.2071,0.2071,0.207,0.205,0.205,0.2049,0.2049,0.2043,0.2043,0.2043,0,0,0,0,0,0,0,0,0,0,0,0,0,0.2088,0.2096,0.2078,0.2068,0.2067,0.2071,0.2071,0.207,0.205,0.205,0.2049,0.2049,0.2043,0.2043,0.2043,0.2055,0,0,0.2044,0.2044,0,0,0,0,0,0,0,0,0.2088,0.2087,0.2069,0.2069,0.2068,0.2062,0.2075,0.2065,0.205,0.2056,0.2049,0.2049,0.205,0.205,0.2048,0.2054,0.2054,0.2044,0.2044,0.2044,0.2044,0,0,0,0,0,0,0,0.2089,0.2087,0.2074,0.2069,0.2068,0.2071,0.2069,0.2073,0.2055,0.2055,0.2054,0.2055,0.205,0.2048,0.2048,0.2054,0.2044,0.2044,0.2044,0.2044,0.2099,0.2101,0,0,0,0,0,0,0.2091,0.2088,0.2074,0.2074,0.2078,0.2071,0.2069,0.2063,0.2055,0.2054,0.2055,0.2054,0.2048,0.2048,0.2048,0.2049,0.2044,0.2044,0.2044,0.2098,0.21,0.2101,0,0,0,0,0,0,0.2091,0.209,0.2075,0.2082,0.208,0.2071,0.2065,0.2063,0.2067,0.2055,0.2054,0.2061,0.2047,0.2047,0.2053,0.2049,0.2044,0.2045,0.2097,0.2099,0.21,0.206,0,0,0,0,0,0,0.2092,0.209,0.2104,0.2082,0.208,0.2092,0.2066,0.2064,0.2068,0.2067,0.206,0.2058,0.2047,0.2053,0.2054,0.2049,0.2045,0.2095,0.2097,0.21,0.2059,0.206,0.2061,0,0,0,0,0,0.2092,0.2092,0.2104,0.2104,0.2093,0.2093,0.2093,0.2084,0.2069,0.2082,0.2067,0.2059,0.207,0.2054,0.2054,0.205,0.2094,0.2097,0.21,0.2059,0.206,0.2061,0,0,0,0,0,0,0.2089,0.209,0.2102,0.2099,0.2112,0.209,0.2092,0.2091,0.209,0.2082,0.2067,0.2065,0.2069,0.208,0.2062,0.208,0.2085,0.2088,0.2054,0.2055,0.2055,0.2037,0.2045,0,0,0,0,0,0.2103,0.2105,0.2115,0.211,0.2118,0.2112,0.2114,0.2112,0.2101,0.2099,0.2091,0.2089,0.2083,0.2084,0.2088,0.2095,0.2091,0.2101,0.2101,0.2101,0.2092,0.2094,0.2093,0.2111,0.2111,0.2111,0,0,0.2094,0.2097,0.2097,0.2113,0.211,0.211,0.2111,0.2111,0.2104,0.2099,0.2085,0.2089,0.2088,0.2088,0.2093,0.2093,0.2094,0.2105,0.2104,0.2095,0.2097,0.2095,0.2093,0.2113,0.2113,0.2112,0,0,0.2068,0.2087,0.2086,0.2101,0.2117,0.2113,0.2119,0.2117,0.2117,0.2119,0.2104,0.2106,0.211,0.2098,0.2092,0.2108,0.2097,0.2122,0.2103,0.2106,0.2103,0.2101,0.208,0.2077,0.2122,0.2122,0.2122,0,0.2067,0.206,0.2087,0.2091,0.209,0.2112,0.2105,0.2111,0.2111,0.2105,0.2116,0.2102,0.2108,0.2082,0.2088,0.2103,0.2099,0.2089,0.2102,0.21,0.2098,0.2078,0.2074,0.212,0.212,0.2121,0.2121,0,0.2047,0.2046,0.2038,0.205,0.2062,0.2056,0.2073,0.2087,0.209,0.2085,0.2081,0.2088,0.2077,0.2088,0.2087,0.2078,0.2076,0.2097,0.2087,0.2092,0.2072,0.2069,0.2118,0.2118,0.2119,0.2119,0,0,0.2011,0.2025,0.2018,0.2016,0.2039,0.2034,0.204,0.2042,0.2041,0.2049,0.2037,0.203,0.2037,0.2034,0.2041,0.2047,0.2031,0.2066,0.2067,0.2022,0.2018,0.2055,0.2055,0.2052,0.2052,0.2051,0.2003,0,0.1983,0.1969,0.1987,0.196,0.1952,0.1984,0.1991,0.2001,0.2017,0.2023,0.202,0.202,0.2014,0.2024,0.2018,0.2042,0.2024,0.2041,0.204,0.2039,0.2053,0.2054,0.2151,0.212,0.1999,0.1999,0.1998,0,0.195,0.1946,0.1922,0.1919,0.1921,0.1917,0.193,0.1944,0.1968,0.1991,0.198,0.1989,0.1978,0.2,0.1983,0.1995,0.1993,0.2007,0.2006,0.2051,0.2072,0.2101,0.2118,0.2149,0.1993,0.1994,0.1994,0,0.1894,0.1884,0.1858,0.1859,0.1878,0.1876,0.1888,0.1921,0.195,0.197,0.1995,0.197,0.1986,0.1972,0.199,0.1987,0.1991,0.1993,0.2005,0.2006,0.2094,0.2105,0.2123,0.1968,0.1968,0.1968,0.1968,0,0.1843,0.1816,0.183,0.1818,0.1815,0.1834,0.1848,0.188,0.1928,0.1961,0.1966,0.1996,0.1988,0.1991,0.1983,0.1988,0.1975,0.1992,0.2,0.2084,0.2094,0.2131,0.2113,0.1966,0.1966,0.1967,0.1967,0,0.1772,0.1785,0.1763,0.1776,0.1791,0.1785,0.1846,0.1869,0.1915,0.1965,0.1976,0.2015,0.2036,0.2018,0.2023,0.1997,0.1975,0.1998,0.2087,0.2107,0.2141,0.2117,0.1917,0.1867,0.1986,0.1987,0.1987,0,0.1722,0.1714,0.1732,0.1756,0.1762,0.1778,0.1817,0.1868,0.1909,0.1985,0.2013,0.2045,0.2099,0.2103,0.2107,0.2087,0.2004,0.2115,0.2128,0.2151,0.213,0.1941,0.1899,0.2218,0.222,0.2222,0.2224,0,0.1672,0.1692,0.1698,0.173,0.1762,0.1788,0.1835,0.1871,0.1943,0.2,0.2082,0.2132,0.2183,0.2243,0.2224,0.2216,0.2082,0.2154,0.2169,0.2302,0.2104,0.2061,0.2216,0.2242,0.224,0.2239,0.2238,0.2237,0.1661,0.1662,0.1701,0.1718,0.1759,0.1791,0.1814,0.1885,0.1959,0.206,0.2121,0.2239,0.2352,0.2379,0.2338,0.237,0.2192,0.2365,0.2325,0.2121,0.2099,0.2276,0.2323,0.2322,0.2321,0.232,0.2319,0,0.1661,0.1683,0.1701,0.1733,0.1749,0.1771,0.1833,0.1867,0.1953,0.2092,0.2188,0.2396,0.2505,0.2544,0.2599,0.2568,0.2405,0.2529,0.2338,0.2281,0.2485,0.2535,0.2643,0.2643,0.2643,0.2643,0.2643,0.2643,0.1691,0.1707,0.1698,0.172,0.1734,0.1756,0.1781,0.185,0.1952,0.212,0.227,0.238,0.253,0.2698,0.2744,0.2701,0.2504,0.2445,0.2305,0.2578,0.2561,0.2544,0.259,0.2708,0.2708,0.2083,0.208,0.2077]},{"header":{"parameterUnit":"m.s-1","parameterCategory":2,"la1":30.2991,"la2":30.254,"lo1":-89.0895,"lo2":-89.0444,"dy":0.0017,"dx":0.0017,"nx":28,"ny":28,"refTime":"2025-01-19T03:00:00:Z","depth":"0","parameterNumber":3,"parameterNumberName":"V-component_of_CURRENTS"},"data":[0,0,0,0,0,0,0,0,0,0,0,0,0,0,0,0,0,0,0,0,0,0,0,0,0,0,0,0,0,0,0,0,0,0,0,0,0,0,0,0,0,0,0,0,0,0,0,0,0,0,0,0,0,0,0,0,0,0,-0.0134,-0.0134,0,-0.012,-0.012,-0.012,-0.0114,-0.0114,-0.0114,-0.0115,-0.0113,-0.0113,-0.0112,0,0,0,0,0,0,0,0,0,0,0,0,0,-0.0173,-0.0172,-0.0134,-0.0134,-0.0134,-0.012,-0.012,-0.012,-0.0114,-0.0114,-0.0114,-0.0115,-0.0113,-0.0113,-0.0112,0,0,0,0,0,0,0,0,0,0,0,0,0,-0.0156,-0.0172,-0.0134,-0.013,-0.013,-0.012,-0.012,-0.012,-0.0114,-0.0114,-0.0114,-0.0115,-0.0113,-0.0113,-0.0112,-0.0107,0,0,-0.0112,-0.0111,0,0,0,0,0,0,0,0,-0.0157,-0.0155,-0.0131,-0.013,-0.013,-0.012,-0.0133,-0.0116,-0.0114,-0.0119,-0.0115,-0.0115,-0.0117,-0.0116,-0.0112,-0.0107,-0.0107,-0.0112,-0.0111,-0.0111,-0.0111,0,0,0,0,0,0,0,-0.0158,-0.0155,-0.0127,-0.0131,-0.013,-0.0135,-0.0133,-0.013,-0.0116,-0.0118,-0.0118,-0.0118,-0.0117,-0.0112,-0.0112,-0.0107,-0.0112,-0.0111,-0.0111,-0.0111,-0.0086,-0.0086,0,0,0,0,0,0,-0.0161,-0.0156,-0.0128,-0.0127,-0.0146,-0.0135,-0.0132,-0.0122,-0.0116,-0.0116,-0.0118,-0.0118,-0.0112,-0.0112,-0.0112,-0.0085,-0.0111,-0.0111,-0.0111,-0.0087,-0.0086,-0.0086,0,0,0,0,0,0,-0.0162,-0.0158,-0.0128,-0.0143,-0.014,-0.0134,-0.0123,-0.0122,-0.0118,-0.0116,-0.0116,-0.0116,-0.0112,-0.0112,-0.0093,-0.0086,-0.0111,-0.0111,-0.0087,-0.0087,-0.0086,-0.0046,0,0,0,0,0,0,-0.0163,-0.0158,-0.0161,-0.0143,-0.0139,-0.0113,-0.0123,-0.0121,-0.0118,-0.0118,-0.0114,-0.0114,-0.0112,-0.0093,-0.0092,-0.0086,-0.0111,-0.0088,-0.0087,-0.0086,-0.0048,-0.0044,-0.0041,0,0,0,0,0,-0.0164,-0.0139,-0.0161,-0.0158,-0.014,-0.0112,-0.011,-0.0107,-0.0118,-0.0106,-0.01,-0.0114,-0.0087,-0.0092,-0.0091,-0.0085,-0.0088,-0.0087,-0.0086,-0.005,-0.0045,-0.0041,0,0,0,0,0,0,-0.0146,-0.0137,-0.0159,-0.0133,-0.013,-0.0111,-0.0098,-0.0107,-0.0094,-0.0093,-0.0099,-0.0097,-0.0079,-0.0088,-0.0093,-0.0076,-0.0094,-0.0092,-0.0066,-0.0062,-0.0058,-0.0058,-0.011,0,0,0,0,0,-0.0151,-0.0131,-0.0135,-0.0113,-0.0113,-0.0114,-0.0108,-0.0106,-0.009,-0.0086,-0.0087,-0.0085,-0.0074,-0.0072,-0.0063,-0.0053,-0.0074,-0.0052,-0.0048,-0.0045,-0.0045,-0.0067,-0.0065,-0.0082,-0.0082,-0.0082,0,0,-0.0135,-0.013,-0.0118,-0.011,-0.0106,-0.0092,-0.0108,-0.0085,-0.0076,-0.0087,-0.007,-0.0068,-0.0067,-0.0047,-0.0042,-0.0054,-0.005,-0.0043,-0.004,-0.0042,-0.0066,-0.0064,-0.0063,-0.0081,-0.0081,-0.0081,0,0,-0.0088,-0.0093,-0.0073,-0.007,-0.0069,-0.0065,-0.0062,-0.0053,-0.0054,-0.004,-0.0044,-0.0036,-0.0029,-0.0022,-0.0019,0.0007,-0.0026,0.0002,0.0018,-0.0003,-0.0002,-0.0001,-0.0023,-0.0024,-0.0,-0.0,-0.0,0,-0.0077,-0.0057,-0.0061,-0.0047,-0.0041,-0.0054,-0.0035,-0.0032,-0.002,-0.0018,-0.0029,-0.0016,-0.0016,0.0006,0.0017,0.0015,-0.0005,0.0003,0.0002,0.0002,0.0002,-0.0021,-0.0023,0.0002,0.0001,0.0001,0.0001,0,-0.0032,-0.002,0.0002,0.0007,0.0016,0.0041,0.0034,0.0036,0.0026,0.0024,0.0034,0.0034,0.0037,0.0038,0.0037,0.004,0.0024,0.0012,-0.001,0.0006,-0.0019,-0.0022,0.0005,0.0004,0.0003,0.0003,0,0,0.0008,0.0027,0.0033,0.0034,0.0045,0.0062,0.0075,0.0082,0.0082,0.0082,0.0081,0.0099,0.0085,0.0086,0.0078,0.006,0.0046,0.0036,0.0034,0.0015,-0.0005,-0.0043,-0.0051,0.003,0.003,0.0029,-0.0021,0,0.0038,0.0076,0.0077,0.0113,0.0126,0.0116,0.012,0.0124,0.0123,0.0118,0.0108,0.0113,0.0107,0.0102,0.0088,0.0058,0.0039,0.006,-0.0017,-0.002,-0.0056,-0.0055,-0.0064,-0.0112,-0.0024,-0.0025,-0.0025,0,0.0068,0.0089,0.0129,0.0141,0.0144,0.016,0.0164,0.0168,0.016,0.0151,0.0155,0.0143,0.0137,0.0113,0.0072,0.0084,0.0044,0.0014,0.0011,-0.0042,-0.0064,-0.0114,-0.0122,-0.0217,-0.0031,-0.003,-0.003,0,0.0086,0.0124,0.0158,0.0166,0.0177,0.0184,0.0186,0.0182,0.0186,0.0177,0.0179,0.0162,0.015,0.0105,0.0055,0.0058,-0.0011,-0.0015,-0.0086,-0.0089,-0.0121,-0.0127,-0.0231,-0.0057,-0.0057,-0.0057,-0.0057,0,0.0114,0.0139,0.0168,0.0184,0.0195,0.0201,0.0213,0.02,0.0206,0.0222,0.02,0.0204,0.0145,0.0106,0.0053,-0.0027,-0.0012,-0.0087,-0.0107,-0.0108,-0.0111,-0.0215,-0.026,-0.0059,-0.0059,-0.0058,-0.0058,0,0.0127,0.015,0.0178,0.02,0.0203,0.0209,0.0226,0.0245,0.0237,0.0258,0.0258,0.0234,0.018,0.0114,0.0029,-0.0029,-0.0163,-0.0139,-0.0137,-0.0156,-0.0312,-0.0353,-0.0445,-0.0509,-0.0225,-0.0226,-0.0227,0,0.0139,0.015,0.0183,0.0198,0.0211,0.0228,0.0242,0.0247,0.0284,0.0284,0.0304,0.0254,0.0233,0.0088,-0.0033,-0.0147,-0.0213,-0.0242,-0.0237,-0.033,-0.0391,-0.0385,-0.0432,-0.026,-0.0261,-0.0262,-0.0263,0,0.0122,0.0132,0.0155,0.0207,0.0234,0.0264,0.0298,0.0329,0.0351,0.0366,0.0379,0.0356,0.0214,0.0095,-0.008,-0.0171,-0.0315,-0.0267,-0.0364,-0.0432,-0.0433,-0.0501,-0.0217,-0.0272,-0.0271,-0.0271,-0.027,-0.027,0.0091,0.0111,0.0154,0.0203,0.0243,0.031,0.0341,0.0399,0.044,0.0484,0.0444,0.0436,0.0247,0.0008,-0.0159,-0.0434,-0.0393,-0.0486,-0.0529,-0.0515,-0.058,-0.0322,-0.0401,-0.0401,-0.0401,-0.0401,-0.0401,0,0.0061,0.0101,0.015,0.0217,0.0283,0.0308,0.039,0.044,0.0501,0.0546,0.0547,0.0457,0.0212,-0.0043,-0.0397,-0.062,-0.0698,-0.0741,-0.0738,-0.0776,-0.0551,-0.0558,-0.0675,-0.0675,-0.0675,-0.0675,-0.0675,-0.0675,0.003,0.0085,0.0139,0.0237,0.0298,0.0386,0.0437,0.0512,0.0572,0.0628,0.0637,0.0607,0.0405,-0.0157,-0.0639,-0.0798,-0.0971,-0.0994,-0.1074,-0.0924,-0.0902,-0.0882,-0.09,-0.1087,-0.1088,-0.1266,-0.1268,-0.1269]}],[{"header":{"parameterUnit":"m.s-1","parameterCategory":2,"la1":30.2991,"la2":30.254,"lo1":-89.0895,"lo2":-89.0444,"dy":0.0017,"dx":0.0017,"nx":28,"ny":28,"refTime":"2025-01-19T03:00:00:Z","depth":"2","parameterNumber":2,"parameterNumberName":"U-component_of_CURRENTS"},"data":[0,0,0,0,0,0,0,0,0,0,0,0,0,0,0,0,0,0,0,0,0,0,0,0,0,0,0,0,0,0,0,0,0,0,0,0,0,0,0,0,0,0,0,0,0,0,0,0,0,0,0,0,0,0,0,0,0,0,0.2019,0.2019,0,0.2012,0.2012,0.2012,0.1998,0.1998,0.1997,0.1997,0.199,0.1991,0.1991,0,0,0,0,0,0,0,0,0,0,0,0,0,0.2031,0.2031,0.2019,0.2019,0.2019,0.2012,0.2012,0.2012,0.1998,0.1998,0.1997,0.1997,0.199,0.1991,0.1991,0,0,0,0,0,0,0,0,0,0,0,0,0,0.2027,0.2031,0.2019,0.201,0.2009,0.2012,0.2012,0.2012,0.1999,0.1998,0.1997,0.1997,0.199,0.1991,0.1991,0.2006,0,0,0.1992,0.1992,0,0,0,0,0,0,0,0,0.2027,0.2027,0.2012,0.2011,0.2009,0.2004,0.2014,0.2009,0.1999,0.2004,0.1997,0.1996,0.1994,0.1994,0.1997,0.2006,0.2005,0.1992,0.1992,0.1992,0.1992,0,0,0,0,0,0,0,0.2028,0.2027,0.2018,0.2011,0.201,0.2009,0.2008,0.2013,0.2004,0.2004,0.2002,0.1999,0.1994,0.1997,0.1997,0.2005,0.1992,0.1992,0.1992,0.1993,0.2059,0.206,0,0,0,0,0,0,0.2025,0.2027,0.2018,0.2018,0.2015,0.2009,0.2008,0.2008,0.2004,0.2003,0.1999,0.1998,0.1996,0.1996,0.1996,0.1999,0.1992,0.1993,0.1993,0.2057,0.2059,0.2061,0,0,0,0,0,0,0.2025,0.2025,0.2019,0.2021,0.202,0.201,0.2009,0.2008,0.2017,0.2001,0.1999,0.2011,0.1996,0.1996,0.2004,0.1999,0.1993,0.1993,0.2055,0.2058,0.206,0.2013,0,0,0,0,0,0,0.2026,0.2025,0.2047,0.2021,0.2019,0.2037,0.201,0.2008,0.2015,0.2014,0.201,0.2008,0.1995,0.2004,0.2005,0.1999,0.1993,0.2053,0.2056,0.2059,0.2013,0.2014,0.2014,0,0,0,0,0,0.2027,0.2031,0.2048,0.2048,0.2042,0.2038,0.2038,0.2029,0.2016,0.2033,0.2019,0.2009,0.2023,0.2005,0.2005,0.2,0.2052,0.2055,0.2059,0.2012,0.2013,0.2014,0,0,0,0,0,0,0.2026,0.203,0.2047,0.205,0.2061,0.2035,0.2038,0.2039,0.2042,0.2035,0.2019,0.2018,0.2022,0.2035,0.2015,0.2036,0.204,0.2044,0.2005,0.2006,0.2007,0.199,0.1994,0,0,0,0,0,0.2046,0.2055,0.2063,0.2063,0.207,0.2064,0.2067,0.2064,0.2052,0.2053,0.2045,0.2044,0.2039,0.204,0.2044,0.2055,0.2052,0.2061,0.2061,0.2061,0.2054,0.2057,0.2055,0.2072,0.2072,0.2072,0,0,0.2039,0.2043,0.2048,0.2067,0.2065,0.2062,0.2063,0.2063,0.2056,0.2052,0.2041,0.2045,0.2045,0.2045,0.205,0.2052,0.2056,0.2066,0.2065,0.2057,0.206,0.2058,0.2056,0.2074,0.2074,0.2074,0,0,0.2013,0.2041,0.2046,0.2059,0.2073,0.2068,0.2074,0.207,0.2073,0.2078,0.2061,0.2064,0.2071,0.2056,0.2051,0.207,0.2058,0.2085,0.2068,0.2071,0.2068,0.2066,0.2046,0.2042,0.2086,0.2086,0.2086,0,0.2017,0.2015,0.2045,0.205,0.2046,0.2068,0.206,0.2068,0.2068,0.2063,0.2076,0.2064,0.2069,0.2042,0.2048,0.2064,0.2061,0.2051,0.2066,0.2064,0.2063,0.2043,0.2039,0.2084,0.2084,0.2085,0.2085,0,0.1994,0.2001,0.1992,0.2007,0.2018,0.2011,0.2026,0.2041,0.2046,0.2043,0.2041,0.205,0.204,0.205,0.2049,0.204,0.2039,0.2059,0.2049,0.2057,0.2037,0.2034,0.2082,0.2082,0.2083,0.2083,0,0,0.1964,0.198,0.1974,0.1975,0.1996,0.1988,0.1993,0.1994,0.1994,0.2005,0.1995,0.1988,0.1998,0.1996,0.2003,0.201,0.1995,0.2031,0.2032,0.1984,0.1983,0.202,0.202,0.2015,0.2015,0.2014,0.1967,0,0.1935,0.192,0.194,0.1915,0.1906,0.1937,0.1945,0.1955,0.1971,0.1979,0.1979,0.1982,0.1975,0.1987,0.1981,0.2006,0.1988,0.2005,0.2006,0.2006,0.2016,0.2019,0.1749,0.1689,0.1964,0.1963,0.1963,0,0.1901,0.1895,0.1872,0.1876,0.1878,0.1875,0.1887,0.1903,0.1926,0.1952,0.1941,0.1952,0.1942,0.1966,0.1949,0.196,0.1959,0.1973,0.1972,0.202,0.2039,0.1733,0.1673,0.1958,0.1958,0.1958,0.1959,0,0.1844,0.1837,0.1811,0.1812,0.1834,0.1835,0.1847,0.1881,0.1911,0.1933,0.1958,0.1936,0.1953,0.194,0.1957,0.1955,0.196,0.196,0.1973,0.1974,0.1753,0.1737,0.1937,0.1937,0.1937,0.1937,0.1938,0,0.1795,0.1769,0.1783,0.1772,0.1773,0.1795,0.1814,0.1846,0.1895,0.1931,0.1934,0.1965,0.1956,0.1959,0.1952,0.1958,0.1944,0.1962,0.1969,0.1733,0.1717,0.1966,0.197,0.1936,0.1936,0.1936,0.1937,0,0.1727,0.174,0.1721,0.1736,0.1751,0.1749,0.1814,0.1838,0.1886,0.1937,0.1948,0.1985,0.2006,0.1988,0.1994,0.1967,0.1969,0.1969,0.1691,0.1669,0.1968,0.1971,0.1956,0.1957,0.1958,0.1959,0.1959,0,0.1679,0.1674,0.1693,0.1719,0.1728,0.1747,0.1787,0.1839,0.188,0.1957,0.1985,0.2017,0.2042,0.2047,0.1932,0.1877,0.2008,0.1706,0.1668,0.1964,0.1972,0.1973,0.1975,0.1326,0.1322,0.1318,0.1315,0,0.1635,0.1658,0.1664,0.1696,0.1732,0.1759,0.1807,0.1843,0.1915,0.1941,0.2023,0.2045,0.199,0.1818,0.1753,0.1704,0.1694,0.1638,0.1978,0.1415,0.1381,0.1387,0.1406,0.1281,0.1285,0.1287,0.1289,0.129,0.163,0.1632,0.1671,0.169,0.1732,0.1764,0.1788,0.1734,0.1764,0.1688,0.1879,0.1754,0.1734,0.1453,0.1421,0.1363,0.1494,0.1447,0.1452,0.1463,0.145,0.1426,0.1328,0.1331,0.1334,0.1337,0.1339,0,0.1596,0.1655,0.1674,0.1708,0.1666,0.1745,0.1806,0.168,0.1568,0.1473,0.1409,0.1229,0.1088,0.1131,0.0922,0.0962,0.0868,0.1015,0.0852,0.0884,0.0913,0.0869,0.0594,0.0593,0.0592,0.0591,0,0,0.1619,0.1614,0.1603,0.1588,0.1639,0.1534,0.1555,0.1352,0.12,0.095,0.083,0.0772,0.0964,0.0677,0.0686,0.0623,0.0744,0.059,0.1164,0.0992,0.102,0.1123,0.1088,0,0,0,0,0]},{"header":{"parameterUnit":"m.s-1","parameterCategory":2,"la1":30.2991,"la2":30.254,"lo1":-89.0895,"lo2":-89.0444,"dy":0.0017,"dx":0.0017,"nx":28,"ny":28,"refTime":"2025-01-19T03:00:00:Z","depth":"2","parameterNumber":3,"parameterNumberName":"V-component_of_CURRENTS"},"data":[0,0,0,0,0,0,0,0,0,0,0,0,0,0,0,0,0,0,0,0,0,0,0,0,0,0,0,0,0,0,0,0,0,0,0,0,0,0,0,0,0,0,0,0,0,0,0,0,0,0,0,0,0,0,0,0,0,0,-0.0072,-0.0072,0,-0.0058,-0.0058,-0.0058,-0.0059,-0.0059,-0.0059,-0.0059,-0.0056,-0.0056,-0.0056,0,0,0,0,0,0,0,0,0,0,0,0,0,-0.0104,-0.0104,-0.0072,-0.0072,-0.0072,-0.0058,-0.0058,-0.0058,-0.0059,-0.0059,-0.0059,-0.0059,-0.0056,-0.0056,-0.0056,0,0,0,0,0,0,0,0,0,0,0,0,0,-0.0091,-0.0104,-0.0072,-0.0069,-0.0069,-0.0058,-0.0058,-0.0058,-0.0059,-0.0059,-0.0059,-0.0059,-0.0056,-0.0056,-0.0056,-0.0052,0,0,-0.0055,-0.0055,0,0,0,0,0,0,0,0,-0.0092,-0.009,-0.007,-0.007,-0.0069,-0.0059,-0.0068,-0.0056,-0.0059,-0.0064,-0.0059,-0.0059,-0.0057,-0.0057,-0.0056,-0.0052,-0.0052,-0.0055,-0.0055,-0.0055,-0.0055,0,0,0,0,0,0,0,-0.0093,-0.0091,-0.0068,-0.007,-0.0069,-0.007,-0.0069,-0.0066,-0.0061,-0.0064,-0.0063,-0.0059,-0.0057,-0.0056,-0.0056,-0.0052,-0.0055,-0.0055,-0.0055,-0.0055,-0.0037,-0.0037,0,0,0,0,0,0,-0.0092,-0.0092,-0.0068,-0.0067,-0.008,-0.0069,-0.0068,-0.0063,-0.0061,-0.006,-0.0059,-0.006,-0.0056,-0.0056,-0.0056,-0.0031,-0.0055,-0.0055,-0.0055,-0.0038,-0.0037,-0.0037,0,0,0,0,0,0,-0.0092,-0.009,-0.0069,-0.0078,-0.0076,-0.0068,-0.0064,-0.0063,-0.0064,-0.0058,-0.0058,-0.0061,-0.0056,-0.0056,-0.0039,-0.0032,-0.0055,-0.0055,-0.0038,-0.0037,-0.0037,0.0006,0,0,0,0,0,0,-0.0093,-0.009,-0.01,-0.0078,-0.0075,-0.0053,-0.0063,-0.0062,-0.006,-0.0061,-0.0059,-0.0059,-0.0057,-0.004,-0.0039,-0.0032,-0.0054,-0.0038,-0.0038,-0.0037,0.0004,0.0008,0.0011,0,0,0,0,0,-0.0095,-0.0075,-0.01,-0.0098,-0.0084,-0.0052,-0.0051,-0.0048,-0.006,-0.0052,-0.0047,-0.0059,-0.0036,-0.0038,-0.0038,-0.0031,-0.0039,-0.0038,-0.0037,0.0003,0.0007,0.0011,0,0,0,0,0,0,-0.008,-0.0073,-0.01,-0.0079,-0.0075,-0.0052,-0.0039,-0.005,-0.0041,-0.0042,-0.0047,-0.0045,-0.0027,-0.0037,-0.004,-0.0026,-0.0043,-0.0042,-0.0013,-0.0009,-0.0005,-0.0005,-0.0054,0,0,0,0,0,-0.009,-0.0076,-0.0078,-0.006,-0.0059,-0.006,-0.0054,-0.0052,-0.0037,-0.0034,-0.0035,-0.0035,-0.0024,-0.0023,-0.0014,-0.0006,-0.0027,-0.0005,-0.0001,0.0002,0.0002,-0.0021,-0.002,-0.0034,-0.0034,-0.0034,0,0,-0.0075,-0.0071,-0.0064,-0.0058,-0.0054,-0.0038,-0.0055,-0.0031,-0.0022,-0.0035,-0.002,-0.0019,-0.0018,0.0001,0.0005,-0.0007,-0.0004,0.0003,0.0006,0.0004,-0.002,-0.0019,-0.0017,-0.0034,-0.0034,-0.0034,0,0,-0.0029,-0.0042,-0.0025,-0.0022,-0.0019,-0.0013,-0.001,-0.0001,-0.0005,0.0008,0.0005,0.0011,0.0017,0.0025,0.0027,0.005,0.0019,0.0046,0.006,0.0039,0.004,0.004,0.0019,0.0017,0.0042,0.0042,0.0042,0,-0.0022,-0.0005,-0.0012,0.0001,0.0009,-0.0003,0.0016,0.0018,0.003,0.003,0.0018,0.0029,0.0029,0.0051,0.0061,0.0059,0.0038,0.0048,0.0044,0.0044,0.0043,0.0021,0.0019,0.0044,0.0044,0.0044,0.0044,0,0.0026,0.0032,0.0054,0.0057,0.0066,0.0093,0.0086,0.0088,0.0076,0.0073,0.008,0.0078,0.0081,0.0081,0.0081,0.0083,0.0067,0.0056,0.0034,0.0048,0.0023,0.002,0.0047,0.0047,0.0046,0.0045,0,0,0.0062,0.0079,0.0085,0.0083,0.0094,0.0113,0.0127,0.0136,0.0135,0.0132,0.0129,0.0146,0.0129,0.013,0.0122,0.0103,0.0088,0.0078,0.0076,0.0059,0.0037,-0.0002,-0.001,0.0073,0.0072,0.0072,0.0021,0,0.0092,0.0131,0.0131,0.0166,0.0179,0.0169,0.0173,0.0176,0.0174,0.0168,0.0156,0.0158,0.0152,0.0145,0.013,0.0101,0.008,0.0103,0.0024,0.0022,-0.0013,-0.0014,0.0105,0.0068,0.0018,0.0017,0.0017,0,0.0123,0.0146,0.0185,0.0192,0.0194,0.021,0.0214,0.0218,0.0209,0.0198,0.0201,0.0187,0.018,0.0155,0.0113,0.0126,0.0085,0.0055,0.0052,-0.0003,-0.0023,0.0045,0.0063,0.0011,0.0011,0.0012,0.0012,0,0.0143,0.0179,0.0212,0.0219,0.0229,0.0233,0.0235,0.0231,0.0233,0.0222,0.0223,0.0204,0.0191,0.0145,0.0095,0.0099,0.0029,0.0025,-0.0047,-0.005,0.0026,0.003,-0.0018,-0.0018,-0.0018,-0.0018,-0.0018,0,0.017,0.0193,0.0223,0.0238,0.0246,0.025,0.0258,0.0244,0.0249,0.0263,0.0242,0.0244,0.0185,0.0146,0.0093,0.0013,0.0028,-0.0048,-0.0068,0.0044,0.0049,-0.0021,-0.002,-0.002,-0.0019,-0.0019,-0.0019,0,0.018,0.0204,0.0228,0.025,0.0252,0.0255,0.0268,0.0286,0.0277,0.0297,0.0296,0.0273,0.0219,0.0153,0.0067,0.001,-0.0066,-0.0101,0.003,0.0025,-0.0129,-0.0125,-0.0184,-0.0186,-0.0187,-0.0189,-0.019,0,0.0191,0.0199,0.0232,0.0245,0.0255,0.027,0.0282,0.0287,0.0324,0.0322,0.0343,0.0292,0.0283,0.0138,0.007,-0.0029,-0.0101,-0.0071,-0.0049,-0.0133,-0.0147,-0.0141,-0.0136,0.0079,0.008,0.0081,0.0082,0,0.017,0.0176,0.0199,0.0252,0.0274,0.0304,0.0337,0.0368,0.0389,0.0421,0.0433,0.0421,0.0323,0.0274,0.0117,0.0055,-0.0045,-0.006,-0.0168,0.0086,0.0106,0.0095,0.0094,0.0091,0.009,0.0089,0.0089,0.0089,0.0133,0.0152,0.0194,0.0242,0.0281,0.0348,0.0378,0.0509,0.0574,0.0697,0.058,0.0624,0.0477,0.0378,0.0213,0.0047,0.0037,-0.0036,-0.0034,-0.0035,-0.0013,0.0002,-0.0028,-0.0029,-0.003,-0.0031,-0.0032,0,0.0133,0.014,0.0188,0.0253,0.0364,0.0344,0.0426,0.0572,0.0746,0.0842,0.0913,0.08,0.0708,0.0494,0.0314,0.014,0.0177,0.0029,0.0132,0.0127,0.0121,0.0153,0.0181,0.018,0.0179,0.0179,0,0,0.0107,0.0178,0.0234,0.0358,0.0388,0.0569,0.0623,0.0834,0.0981,0.1151,0.1167,0.1163,0.0824,0.0708,0.0488,0.0336,0.0268,0.0309,0.0174,0.0323,0.0319,0.0132,0.0181,0,0,0,0,0]}],[{"header":{"parameterUnit":"m.s-1","parameterCategory":2,"la1":30.2991,"la2":30.254,"lo1":-89.0895,"lo2":-89.0444,"dy":0.0017,"dx":0.0017,"nx":28,"ny":28,"refTime":"2025-01-19T03:00:00:Z","depth":"4","parameterNumber":2,"parameterNumberName":"U-component_of_CURRENTS"},"data":[0,0,0,0,0,0,0,0,0,0,0,0,0,0,0,0,0,0,0,0,0,0,0,0,0,0,0,0,0,0,0,0,0,0,0,0,0,0,0,0,0,0,0,0,0,0,0,0,0,0,0,0,0,0,0,0,0,0,0.0762,0.0763,0,0.0831,0.0832,0.0833,0.086,0.086,0.0859,0.0859,0.0877,0.0877,0.0878,0,0,0,0,0,0,0,0,0,0,0,0,0,0.0696,0.0697,0.0762,0.0763,0.0764,0.0831,0.0832,0.0833,0.086,0.086,0.0859,0.0859,0.0877,0.0877,0.0878,0,0,0,0,0,0,0,0,0,0,0,0,0,0.0741,0.0697,0.0762,0.0785,0.0788,0.0831,0.0832,0.0833,0.086,0.086,0.0859,0.0859,0.0876,0.0877,0.0878,0.0892,0,0,0.0881,0.0882,0,0,0,0,0,0,0,0,0.0738,0.0743,0.0781,0.0783,0.0786,0.0836,0.0815,0.085,0.086,0.0833,0.0859,0.0859,0.0858,0.0861,0.0876,0.0893,0.0893,0.0882,0.0882,0.0883,0.0883,0,0,0,0,0,0,0,0.0735,0.0741,0.079,0.0782,0.0785,0.0806,0.0812,0.0822,0.0846,0.0835,0.0837,0.0844,0.0859,0.0875,0.0876,0.0894,0.0882,0.0882,0.0883,0.0883,0.0999,0.1001,0,0,0,0,0,0,0.0724,0.0738,0.0788,0.0792,0.076,0.0807,0.0814,0.0821,0.0847,0.0851,0.0844,0.0845,0.0873,0.0875,0.0877,0.0944,0.0883,0.0884,0.0884,0.0996,0.0999,0.1002,0,0,0,0,0,0,0.0722,0.0728,0.0785,0.0766,0.0775,0.0808,0.0817,0.0822,0.0883,0.0855,0.0858,0.0904,0.0873,0.0876,0.0941,0.0943,0.0884,0.0885,0.0993,0.0997,0.1001,0.1047,0,0,0,0,0,0,0.072,0.0727,0.0729,0.0765,0.0775,0.0825,0.0817,0.0824,0.0885,0.0888,0.0906,0.0904,0.0873,0.094,0.0943,0.0943,0.0886,0.099,0.0995,0.0999,0.1042,0.1051,0.1059,0,0,0,0,0,0.0717,0.0733,0.0728,0.0734,0.0777,0.0826,0.0835,0.0857,0.0888,0.0913,0.0952,0.0906,0.0969,0.0945,0.0946,0.0947,0.0988,0.0994,0.0999,0.1038,0.1049,0.1059,0,0,0,0,0,0,0.072,0.0738,0.0734,0.0756,0.079,0.0831,0.0864,0.0894,0.0948,0.0961,0.0955,0.0957,0.1002,0.0994,0.0967,0.0998,0.0964,0.097,0.0993,0.1004,0.1013,0.1,0.0887,0,0,0,0,0,0.0715,0.073,0.0753,0.078,0.08,0.0846,0.0875,0.0892,0.0941,0.0967,0.0976,0.0997,0.102,0.1033,0.1036,0.1075,0.1045,0.1075,0.1083,0.109,0.1086,0.1055,0.1059,0.102,0.102,0.102,0,0,0.0723,0.074,0.0746,0.0781,0.0817,0.0841,0.0865,0.0922,0.0953,0.0958,0.1015,0.1029,0.1042,0.1068,0.1086,0.1066,0.1094,0.1097,0.1103,0.1094,0.1061,0.1064,0.1067,0.1024,0.1023,0.1022,0,0,0.0752,0.077,0.0784,0.0809,0.0855,0.0875,0.0906,0.0955,0.099,0.1056,0.1057,0.1094,0.1135,0.1123,0.1134,0.1206,0.1141,0.1206,0.1234,0.1205,0.1206,0.1207,0.1193,0.1192,0.1207,0.1207,0.1208,0,0.0762,0.0778,0.0802,0.0825,0.0849,0.0899,0.0925,0.0969,0.103,0.1054,0.1079,0.1145,0.1154,0.1184,0.1208,0.1217,0.1199,0.1187,0.1211,0.1211,0.1211,0.1196,0.1195,0.121,0.121,0.121,0.1209,0,0.0785,0.0804,0.0835,0.086,0.0886,0.0934,0.0972,0.1004,0.1063,0.1092,0.1157,0.1192,0.1221,0.1232,0.1252,0.1258,0.1245,0.1222,0.1172,0.1217,0.12,0.1198,0.1214,0.1213,0.1213,0.1212,0,0,0.0801,0.0837,0.0849,0.0861,0.0911,0.094,0.0982,0.1027,0.1055,0.1125,0.1163,0.1236,0.1257,0.1272,0.1286,0.1277,0.1278,0.1261,0.1258,0.1225,0.1225,0.114,0.1128,0.1253,0.1252,0.1252,0.1218,0,0.0822,0.0849,0.0868,0.091,0.0928,0.0962,0.099,0.1028,0.108,0.1115,0.118,0.1225,0.1275,0.1292,0.1301,0.1279,0.1272,0.129,0.1205,0.1202,0.1102,0.1122,0.125,0.1216,0.1215,0.1215,0.1214,0,0.0834,0.0849,0.0877,0.0912,0.0927,0.0959,0.0995,0.1026,0.1071,0.1108,0.1166,0.1208,0.1253,0.1271,0.1278,0.1289,0.1268,0.125,0.1247,0.1142,0.1111,0.116,0.1209,0.1209,0.121,0.121,0.121,0,0.0814,0.0865,0.0888,0.0902,0.0936,0.0965,0.0997,0.1029,0.1051,0.1102,0.1121,0.1181,0.122,0.1213,0.1236,0.1245,0.121,0.1203,0.1108,0.1103,0.1167,0.1166,0.1175,0.1175,0.1175,0.1175,0.1175,0,0.0817,0.084,0.0889,0.0898,0.0915,0.0962,0.0986,0.1006,0.1047,0.1062,0.1133,0.1152,0.1205,0.1212,0.1211,0.1163,0.1195,0.1108,0.108,0.1194,0.1196,0.1166,0.1165,0.1174,0.1174,0.1174,0.1174,0,0.0781,0.0814,0.0837,0.0889,0.09,0.0919,0.0968,0.0981,0.1031,0.1046,0.1066,0.113,0.1137,0.1169,0.1142,0.1121,0.1073,0.1039,0.1172,0.1153,0.0994,0.0997,0.0921,0.0918,0.0915,0.0912,0.091,0,0.0753,0.0759,0.081,0.0811,0.0845,0.0877,0.0883,0.0947,0.0969,0.1025,0.1032,0.1062,0.1094,0.1003,0.1039,0.1004,0.0993,0.0962,0.0975,0.0984,0.0965,0.0972,0.0979,0.0906,0.0905,0.0904,0.0903,0,0.0676,0.0714,0.0726,0.0741,0.0767,0.0773,0.0819,0.0821,0.0893,0.0954,0.0948,0.0942,0.094,0.0937,0.0914,0.0895,0.0978,0.0932,0.0938,0.095,0.0964,0.095,0.096,0.0893,0.0895,0.0896,0.0896,0,0.0612,0.061,0.064,0.0651,0.0672,0.0675,0.0704,0.0736,0.0755,0.0847,0.0836,0.0873,0.0924,0.0878,0.0861,0.0832,0.0819,0.0784,0.0798,0.0809,0.0789,0.0792,0.0634,0,0,0,0,0,0.0539,0.0529,0.0537,0.0545,0.0581,0.0593,0.0653,0.0698,0.0778,0.0743,0.0788,0.0779,0.0754,0.0776,0.0721,0.081,0.0824,0.0742,0.0792,0.0837,0.0848,0.0836,0,0,0,0,0,0,0.0474,0.0479,0.0503,0.0463,0.0458,0.0481,0.0516,0.0574,0.0568,0.0653,0.0646,0.0704,0.0698,0.076,0.0693,0.0699,0.0706,0.077,0.0767,0.083,0.0841,0.085,0.0841,0,0,0,0,0]},{"header":{"parameterUnit":"m.s-1","parameterCategory":2,"la1":30.2991,"la2":30.254,"lo1":-89.0895,"lo2":-89.0444,"dy":0.0017,"dx":0.0017,"nx":28,"ny":28,"refTime":"2025-01-19T03:00:00:Z","depth":"4","parameterNumber":3,"parameterNumberName":"V-component_of_CURRENTS"},"data":[0,0,0,0,0,0,0,0,0,0,0,0,0,0,0,0,0,0,0,0,0,0,0,0,0,0,0,0,0,0,0,0,0,0,0,0,0,0,0,0,0,0,0,0,0,0,0,0,0,0,0,0,0,0,0,0,0,0,0.0351,0.0351,0,0.0335,0.0335,0.0335,0.0317,0.0317,0.0316,0.0316,0.0321,0.0322,0.0322,0,0,0,0,0,0,0,0,0,0,0,0,0,0.0349,0.035,0.0351,0.035,0.035,0.0335,0.0335,0.0335,0.0317,0.0317,0.0316,0.0316,0.0321,0.0322,0.0322,0,0,0,0,0,0,0,0,0,0,0,0,0,0.0345,0.035,0.0351,0.0339,0.0337,0.0335,0.0335,0.0334,0.0317,0.0317,0.0316,0.0316,0.0321,0.0322,0.0322,0.0338,0,0,0.0325,0.0325,0,0,0,0,0,0,0,0,0.0345,0.0345,0.0341,0.0339,0.0338,0.0326,0.0336,0.0336,0.0317,0.0326,0.0316,0.0315,0.0324,0.0325,0.0325,0.0338,0.0338,0.0325,0.0325,0.0325,0.0326,0,0,0,0,0,0,0,0.0345,0.0345,0.0346,0.034,0.0339,0.0328,0.0327,0.0336,0.033,0.0326,0.0324,0.032,0.0324,0.0324,0.0325,0.0339,0.0325,0.0325,0.0326,0.0326,0.0352,0.0352,0,0,0,0,0,0,0.0346,0.0346,0.0346,0.0345,0.0339,0.0328,0.0327,0.0332,0.033,0.0328,0.0321,0.0319,0.0323,0.0324,0.0325,0.0325,0.0325,0.0326,0.0326,0.0352,0.0352,0.0353,0,0,0,0,0,0,0.0347,0.0347,0.0347,0.0343,0.0343,0.0329,0.0334,0.0332,0.0332,0.0325,0.0324,0.0323,0.0323,0.0324,0.0319,0.0326,0.0326,0.0327,0.0352,0.0352,0.0352,0.0338,0,0,0,0,0,0,0.0347,0.0347,0.0361,0.0344,0.0343,0.035,0.0334,0.0332,0.0329,0.0328,0.0327,0.0327,0.0322,0.0318,0.032,0.0327,0.0328,0.0351,0.0352,0.0352,0.0338,0.0338,0.0337,0,0,0,0,0,0.0347,0.0357,0.0362,0.0363,0.0359,0.035,0.0349,0.0338,0.033,0.0335,0.032,0.0327,0.0323,0.0318,0.032,0.0328,0.0351,0.0352,0.0352,0.0338,0.0338,0.0337,0,0,0,0,0,0,0.0359,0.0356,0.0361,0.037,0.0366,0.0347,0.035,0.0342,0.0335,0.0332,0.0324,0.0323,0.032,0.033,0.0325,0.0338,0.0341,0.0342,0.033,0.033,0.0329,0.0335,0.0328,0,0,0,0,0,0.0372,0.0382,0.0374,0.0383,0.0382,0.037,0.0368,0.0358,0.0345,0.0342,0.0335,0.0332,0.0326,0.0331,0.0327,0.0339,0.034,0.0348,0.0348,0.0348,0.0355,0.0353,0.0353,0.0354,0.0354,0.0354,0,0,0.0376,0.0379,0.0383,0.0388,0.0384,0.0384,0.0367,0.0362,0.0359,0.0345,0.034,0.0327,0.0326,0.0325,0.0328,0.0335,0.0347,0.0349,0.0348,0.0355,0.0353,0.0353,0.0353,0.0355,0.0355,0.0355,0,0,0.0388,0.0396,0.041,0.0407,0.0405,0.0397,0.0397,0.0381,0.0372,0.0367,0.0347,0.0335,0.0341,0.033,0.0328,0.0331,0.0338,0.0339,0.035,0.0348,0.0348,0.0347,0.0339,0.0339,0.0347,0.0347,0.0347,0,0.0397,0.0411,0.0411,0.0419,0.042,0.0404,0.0412,0.04,0.0382,0.0376,0.0368,0.0348,0.0343,0.0333,0.033,0.033,0.0329,0.0348,0.0347,0.0346,0.0346,0.0339,0.0338,0.0347,0.0347,0.0347,0.0347,0,0.0412,0.0426,0.0428,0.044,0.0446,0.0443,0.0431,0.0424,0.0413,0.04,0.0383,0.0361,0.0354,0.0349,0.034,0.0338,0.0336,0.0337,0.0345,0.0345,0.0337,0.0336,0.0346,0.0346,0.0346,0.0346,0,0,0.042,0.0437,0.0439,0.0449,0.0454,0.0455,0.0454,0.0447,0.045,0.042,0.0418,0.0388,0.0372,0.0369,0.0351,0.0348,0.0337,0.0347,0.0347,0.0334,0.0329,0.0323,0.0321,0.0337,0.0337,0.0338,0.0319,0,0.0432,0.0454,0.0461,0.0478,0.0487,0.0478,0.0487,0.0481,0.0473,0.0466,0.0425,0.0418,0.0381,0.038,0.0364,0.0347,0.0338,0.0342,0.0336,0.0335,0.0325,0.0321,0.0338,0.0319,0.0319,0.0319,0.0319,0,0.0445,0.0459,0.0488,0.0504,0.0509,0.052,0.0535,0.0538,0.0524,0.0519,0.0491,0.0463,0.0431,0.0412,0.0368,0.0373,0.0352,0.0336,0.0335,0.0337,0.0328,0.0322,0.0318,0.0318,0.0318,0.0318,0.0318,0,0.0456,0.0473,0.0501,0.0504,0.0527,0.0538,0.0546,0.0556,0.0569,0.0553,0.0558,0.0509,0.0489,0.045,0.0395,0.0389,0.0357,0.0347,0.0316,0.0315,0.0332,0.0333,0.0326,0.0326,0.0326,0.0326,0.0326,0,0.0463,0.0478,0.0507,0.0518,0.0558,0.0563,0.0605,0.0603,0.0616,0.0637,0.0585,0.0577,0.05,0.0461,0.0414,0.0359,0.0367,0.0318,0.0312,0.0325,0.0326,0.0331,0.0332,0.0325,0.0325,0.0325,0.0325,0,0.0474,0.0492,0.0526,0.0554,0.057,0.0602,0.0646,0.0674,0.0673,0.0697,0.069,0.0632,0.0577,0.0501,0.0442,0.0388,0.0341,0.0322,0.034,0.0335,0.0295,0.0295,0.0286,0.0286,0.0286,0.0285,0.0285,0,0.048,0.0508,0.056,0.0602,0.062,0.0664,0.0707,0.0713,0.0741,0.0728,0.0737,0.0679,0.0632,0.053,0.0453,0.036,0.0343,0.0313,0.0299,0.0297,0.0292,0.0293,0.0293,0.0285,0.0285,0.0284,0.0284,0,0.0512,0.0544,0.0575,0.0651,0.0705,0.0757,0.0798,0.0815,0.0821,0.0813,0.0773,0.0698,0.0632,0.0533,0.0459,0.0392,0.0329,0.0309,0.0309,0.0296,0.0295,0.029,0.0291,0.0283,0.0284,0.0284,0.0284,0,0.055,0.0585,0.0644,0.0703,0.0772,0.0824,0.0841,0.0855,0.0869,0.0833,0.082,0.0728,0.067,0.0551,0.0486,0.0414,0.039,0.0359,0.0356,0.0356,0.0375,0.0384,0.0397,0,0,0,0,0,0.0586,0.0632,0.0694,0.0763,0.0821,0.086,0.0897,0.0905,0.0893,0.0872,0.0843,0.0777,0.0646,0.0584,0.0513,0.0487,0.0388,0.0401,0.0353,0.0278,0.0279,0.0289,0,0,0,0,0,0,0.0628,0.0687,0.0701,0.0791,0.0844,0.0914,0.0938,0.0935,0.0914,0.0882,0.0814,0.0761,0.0641,0.0696,0.0515,0.0491,0.0449,0.0338,0.0336,0.0277,0.0278,0.0279,0.0289,0,0,0,0,0]}]]